Waarnemingen

Advertentie
Mijn weer
Granada/Aeropuerto, Spanje (8419): temperatuur & dauwpunt: 11.07.2019 12:00:00 - 17.07.2019 12:00:00 (CEST)Granada/Aeropuerto, Spanje (8419): windsnelheid: 11.07.2019 12:00:00 - 17.07.2019 12:00:00 (CEST)Granada/Aeropuerto, Spanje (8419): windrichting: 11.07.2019 12:00:00 - 17.07.2019 12:00:00 (CEST)Granada/Aeropuerto, Spanje (8419): luchtdruk: 11.07.2019 12:00:00 - 17.07.2019 12:00:00 (CEST)Granada/Aeropuerto, Spanje (8419): zicht: 11.07.2019 12:00:00 - 17.07.2019 12:00:00 (CEST)
Datum & Tijd tt [°C] td [°C] ff [km/u] ff [kn] dd ppp [hPa] vv [km]
17.07.2019 12:00:00 28,5 14,0 8 4 WNW 1012,1 19
17.07.2019 11:00:00 26,1 14,5 0 0 N 1012,7 25
17.07.2019 10:00:00 23,7 14,4 4 2 WNW 1013,6 18
17.07.2019 09:00:00 21,6 13,8 4 2 W 1013,8 20
17.07.2019 08:00:00 18,0 12,7 0 0 N 1014,4 18
17.07.2019 07:00:00 17,5 12,0 0 0 N 1014,3 18
17.07.2019 06:00:00 17,9 12,0 4 2 ZZW 1014,2 19
17.07.2019 05:00:00 17,9 11,7 0 0 N 1014,1 23
17.07.2019 04:00:00 19,3 12,5 5 3 ZZW 1014,0 20
17.07.2019 03:00:00 20,7 12,4 0 0 N 1013,8 25
17.07.2019 02:00:00 21,8 12,7 8 4 WZW 1013,8 26
17.07.2019 01:00:00 22,3 11,1 13 7 Z 1013,6 24
17.07.2019 00:00:00 24,5 13,7 5 3 OZO 1013,2 18
16.07.2019 23:00:00 27,3 14,7 0 0 N 1012,1 25
16.07.2019 22:00:00 28,9 14,0 9 5 WZW 1010,9 21
16.07.2019 21:00:00 32,2 12,9 21 11 W 1009,6 28
16.07.2019 20:00:00 35,3 10,5 21 11 W 1008,7 30
16.07.2019 19:00:00 36,8 11,3 18 10 W 1008,0 18
16.07.2019 18:00:00 37,3 8,7 16 9 ZW 1008,1 29
16.07.2019 17:00:00 37,7 8,9 26 14 W 1008,3 30
16.07.2019 16:00:00 38,2 7,3 22 12 WZW 1008,3 30
16.07.2019 15:00:00 38,0 4,8 5 3 Z 1008,4 30
16.07.2019 14:00:00 36,1 11,0 9 5 NNO 1009,0 30
16.07.2019 13:00:00 34,3 11,3 8 4 WNW 1009,9 30
16.07.2019 12:00:00 31,8 14,4 2 1 NNO 1010,6 20
16.07.2019 11:00:00 28,5 13,2 0 0 N 1011,7 20
16.07.2019 10:00:00 25,1 13,6 0 0 N 1012,7 14
16.07.2019 09:00:00 22,2 13,0 0 0 N 1013,3 18
16.07.2019 08:00:00 18,8 12,1 0 0 N 1014,0 15
16.07.2019 07:00:00 17,4 11,5 0 0 N 1014,0 22
16.07.2019 06:00:00 18,3 12,0 0 0 N 1013,6 24
16.07.2019 05:00:00 19,1 12,3 4 2 WZW 1013,4 22
16.07.2019 04:00:00 19,8 12,3 0 0 N 1013,4 27
16.07.2019 03:00:00 21,6 13,2 0 0 N 1013,1 28
16.07.2019 02:00:00 23,6 13,7 0 0 N 1012,8 25
16.07.2019 01:00:00 24,1 13,9 0 0 N 1012,8 27
16.07.2019 00:00:00 26,5 14,3 2 1 W 1011,9 23
15.07.2019 23:00:00 28,2 14,1 11 6 WZW 1011,2 30
15.07.2019 22:00:00 29,7 12,7 13 7 WZW 1010,2 30
15.07.2019 21:00:00 32,5 14,1 15 8 W 1009,0 30
15.07.2019 20:00:00 34,5 14,9 15 8 WNW 1008,2 22
15.07.2019 19:00:00 35,6 11,7 18 10 WNW 1007,8 27
15.07.2019 18:00:00 36,4 11,3 11 6 WNW 1007,8 30
15.07.2019 17:00:00 36,4 12,5 13 7 NW 1008,0 30
15.07.2019 16:00:00 35,9 12,2 15 8 NNW 1008,4 30
15.07.2019 15:00:00 35,4 13,1 13 7 W 1008,9 30
15.07.2019 14:00:00 34,4 13,8 5 3 WZW 1009,6 30
15.07.2019 13:00:00 32,7 14,6 4 2 ZW 1010,6 28
15.07.2019 12:00:00 29,7 14,3 4 2 WNW 1011,7 30
15.07.2019 11:00:00 27,0 15,1 2 1 NW 1012,4 17
15.07.2019 10:00:00 24,4 14,8 0 0 N 1013,3 18
15.07.2019 09:00:00 21,6 13,6 0 0 N 1013,9 16
15.07.2019 08:00:00 19,4 12,5 0 0 N 1014,3 21
15.07.2019 07:00:00 18,5 12,9 2 1 ZZO 1014,4 16
15.07.2019 06:00:00 18,8 13,6 5 3 W 1014,0 18
15.07.2019 05:00:00 20,2 14,1 4 2 W 1013,4 19
15.07.2019 04:00:00 21,3 14,0 4 2 ZW 1013,2 22
15.07.2019 03:00:00 22,3 13,9 9 5 WZW 1013,1 22
15.07.2019 02:00:00 22,8 13,6 11 6 ZW 1013,2 26
15.07.2019 01:00:00 24,1 12,4 8 4 WZW 1013,0 30
15.07.2019 00:00:00 24,5 11,8 9 5 ZZW 1012,7 30
14.07.2019 23:00:00 25,5 11,9 4 2 W 1011,9 25
14.07.2019 22:00:00 27,1 11,6 8 4 W 1011,0 30
14.07.2019 21:00:00 29,6 12,1 13 7 NW 1010,1 30
14.07.2019 20:00:00 31,2 11,6 16 9 WNW 1009,8 30
14.07.2019 19:00:00 31,8 10,8 22 12 NNW 1009,6 30
14.07.2019 18:00:00 32,4 12,1 16 9 NNW 1009,5 30
14.07.2019 17:00:00 32,0 11,1 15 8 NNW 1009,8 30
14.07.2019 16:00:00 31,7 12,5 18 10 NNW 1010,0 20
14.07.2019 15:00:00 31,3 14,4 5 3 NW 1010,5 30
14.07.2019 14:00:00 30,0 14,9 8 4 WZW 1011,6 30
14.07.2019 13:00:00 28,9 14,9 9 5 W 1012,2 30
14.07.2019 12:00:00 27,0 14,1 4 2 W 1013,0 30
14.07.2019 11:00:00 24,7 14,2 4 2 W 1013,6 30
14.07.2019 10:00:00 22,0 14,6 4 2 NW 1014,2 23
14.07.2019 09:00:00 19,7 14,4 5 3 WNW 1014,7 15
14.07.2019 08:00:00 17,6 13,9 4 2 ZW 1014,9 15
14.07.2019 07:00:00 16,8 13,7 4 2 W 1015,0 17
14.07.2019 06:00:00 17,8 13,9 8 4 W 1014,5 17
14.07.2019 05:00:00 18,6 13,7 4 2 WZW 1014,5 20
14.07.2019 04:00:00 19,5 13,5 13 7 WZW 1014,3 22
14.07.2019 03:00:00 20,2 13,2 11 6 W 1014,4 28
14.07.2019 02:00:00 21,6 12,7 16 9 WZW 1014,1 30
14.07.2019 01:00:00 22,4 11,5 13 7 WZW 1014,4 30
14.07.2019 00:00:00 23,7 13,6 18 10 WZW 1014,1 30
13.07.2019 23:00:00 25,4 14,2 18 10 W 1013,0 30
13.07.2019 22:00:00 27,5 13,1 21 11 WZW 1011,2 30
13.07.2019 21:00:00 30,2 14,6 22 12 W 1009,9 30
13.07.2019 20:00:00 31,5 15,2 22 12 W 1009,4 30
13.07.2019 19:00:00 33,3 15,8 24 13 W 1009,1 23
13.07.2019 18:00:00 34,1 15,3 28 15 W 1009,1 23
13.07.2019 17:00:00 34,9 14,0 28 15 W 1009,0 25
13.07.2019 16:00:00 34,6 13,7 18 10 W 1009,6 20
13.07.2019 15:00:00 34,9 14,0 16 9 W 1010,0 25
13.07.2019 14:00:00 33,3 13,4 13 7 WNW 1011,1 25
13.07.2019 13:00:00 31,9 14,3 11 6 W 1012,2 23
13.07.2019 12:00:00 29,8 16,2 4 2 W 1013,0 22
13.07.2019 11:00:00 27,2 17,0 4 2 W 1013,7 25
13.07.2019 10:00:00 24,3 16,9 8 4 WNW 1014,7 21
13.07.2019 09:00:00 22,7 16,5 8 4 WZW 1014,9 15
13.07.2019 08:00:00 21,0 15,3 0 0 N 1014,9 15
13.07.2019 07:00:00 20,5 15,3 0 0 N 1014,8 16
13.07.2019 06:00:00 21,8 16,1 0 0 N 1014,6 18
13.07.2019 05:00:00 23,2 15,8 9 5 ZW 1014,3 21
13.07.2019 04:00:00 24,1 16,6 8 4 W 1013,8 18
13.07.2019 03:00:00 26,4 14,5 16 9 WZW 1014,3 26
13.07.2019 02:00:00 26,8 14,2 11 6 Z 1014,0 25
13.07.2019 01:00:00 27,7 14,0 9 5 WZW 1014,1 23
13.07.2019 00:00:00 27,6 14,8 8 4 N 1013,5 29
12.07.2019 23:00:00 29,8 14,7 13 7 ZZO 1012,8 25
12.07.2019 22:00:00 31,1 14,2 9 5 W 1012,0 24
12.07.2019 21:00:00 32,4 13,6 18 10 WZW 1011,4 20
12.07.2019 20:00:00 34,4 11,9 22 12 WZW 1010,1 25
12.07.2019 19:00:00 37,7 10,9 15 8 WZW 1009,0 24
12.07.2019 18:00:00 36,5 12,2 15 8 W 1009,6 30
12.07.2019 17:00:00 34,5 13,3 9 5 W 1010,4 25
12.07.2019 16:00:00 36,7 11,9 5 3 W 1009,8 26
12.07.2019 15:00:00 35,7 11,4 11 6 ZO 1009,7 25
12.07.2019 14:00:00 34,9 11,3 13 7 O 1011,1 30
12.07.2019 13:00:00 33,7 12,0 4 2 O 1012,6 30
12.07.2019 12:00:00 32,1 13,3 0 0 N 1013,1 17
12.07.2019 11:00:00 29,3 13,1 2 1 NNW 1013,9 30
12.07.2019 10:00:00 25,9 13,6 5 3 NNW 1015,0 18
12.07.2019 09:00:00 22,3 14,4 5 3 NNW 1015,5 15
12.07.2019 08:00:00 20,7 12,4 4 2 ZZO 1015,7 15
12.07.2019 07:00:00 20,0 12,2 0 0 N 1015,6 26
12.07.2019 06:00:00 21,0 12,4 4 2 ZW 1015,1 29
12.07.2019 05:00:00 21,8 12,1 2 1 ZO 1014,6 30
12.07.2019 04:00:00 21,6 12,1 0 0 N 1014,9 30
12.07.2019 03:00:00 23,5 12,1 0 0 N 1014,5 30
12.07.2019 02:00:00 25,3 11,7 8 4 ZZW 1013,7 30
12.07.2019 01:00:00 26,1 12,2 4 2 OZO 1013,5 25
12.07.2019 00:00:00 26,7 13,1 4 2 NW 1013,3 25
11.07.2019 23:00:00 28,7 13,8 4 2 N 1012,1 25
11.07.2019 22:00:00 31,1 12,6 13 7 Z 1010,4 30
11.07.2019 21:00:00 33,6 13,1 15 8 ZZW 1009,1 26
11.07.2019 20:00:00 36,4 13,2 18 10 ZZO 1007,8 25
11.07.2019 19:00:00 39,5 10,8 15 8 ZZO 1007,0 30
11.07.2019 18:00:00 - - - - - - -
11.07.2019 17:00:00 - - - - - - -
11.07.2019 16:00:00 38,1 10,7 9 5 NNO 1008,2 21
11.07.2019 15:00:00 36,8 9,4 4 2 O 1009,1 30
11.07.2019 14:00:00 35,3 9,4 4 2 NO 1009,9 30
11.07.2019 13:00:00 33,0 10,4 9 5 NO 1010,8 26
11.07.2019 12:00:00 30,9 11,3 4 2 N 1011,5 30

tt = temperatuur
td = dauwpunt
ff = windsnelheid
dd = windrichting
ppp = luchtdruk
vv = zicht

Weerstations in de omgeving